Regional Weather Roundup
Issued by NWS

Home | Current Version | Previous Version | Graphics & Text | Print | Product List | Glossary On
Versions: 1 2 3 4 5 6 7 8 9 10 11 12 13 14 15 16 17 18 19 20 21 22 23 24 25 26 27 28 29 30 31 32 33 34 35 36 37 38 39 40 41 42 43 44 45 46 47 48 49 50
000
ASUS45 KBOI 202210
RWRID

IDAHO REGIONAL WEATHER ROUNDUP
NATIONAL WEATHER SERVICE BOISE ID
300 PM MST FRI JAN 20 2017

NOTE: "FAIR" INDICATES FEW OR NO CLOUDS BELOW 12000 FEET
WITH NO SIGNIFICANT WEATHER AND/OR OBSTRUCTIONS TO VISIBILITY

IDZ012-014-202300-
SOUTHWEST IDAHO


CITY           SKY/WX    TMP DP  RH WIND       PRES   REMARKS
BOISE          MOSUNNY   41  27  57 SE15      29.26S
CALDWELL       PTSUNNY   37  29  72 SE16      29.28F WCI  28
MOUNTAIN HOME  MOSUNNY   37  29  73 E23G32    29.27F WCI  26
$$

IDZ016-017-202300-
SOUTHCENTRAL IDAHO


CITY           SKY/WX    TMP DP  RH WIND       PRES   REMARKS
BURLEY         PTSUNNY   37  24  59 N8        29.34F WCI  31
JEROME         PTSUNNY   36  26  67 E17       29.33F WCI  26
TWIN FALLS     MOSUNNY   38  23  55 SE17G25   29.30F WCI  28
$$

IDZ019>023-202300-
SOUTHEAST IDAHO


CITY           SKY/WX    TMP DP  RH WIND       PRES   REMARKS
IDAHO FALLS    CLOUDY    29  26  89 CALM      29.44F
POCATELLO      CLOUDY    35  25  66 N5        29.43S WCI  31
REXBURG        CLOUDY    31  26  82 NE3       29.44F
$$

IDZ006-010-011-018-031-032-202300-
CENTRAL IDAHO MOUNTAINS


CITY           SKY/WX    TMP DP  RH WIND       PRES   REMARKS
MCCALL         CLOUDY    35  23  61 CALM      29.23F
HAILEY         LGT SNOW  30  27  86 W5        29.39F WCI  25
STANLEY          N/A     29  18  63 SE10G22   29.28F WCI  20
SALMON         SUNNY     27  21  80 CALM      29.39F
CHALLIS        CLOUDY    17  15  92 CALM      29.36F
$$

IDZ002-004-006-007-026-202300-
NORTHERN IDAHO


CITY           SKY/WX    TMP DP  RH WIND       PRES   REMARKS
LEWISTON       MOSUNNY   43  30  60 E9        29.24F
LOWELL           N/A     37  33  85 N3        29.31F
COEUR D`ALENE  SUNNY     41  33  73 N12       29.27F
MULLAN PASS    CLOUDY    30  25  81 VRB5      29.25S HAZE    WCI  25
$$



USA.gov is the U.S. government's official web portal to all federal, state and local government web resources and services.